Regional Weather Roundup
Issued by NWS

Home | Current Version | Previous Version | Graphics & Text | Print | Product List | Glossary On
Versions: 1 2 3 4 5 6 7 8 9 10 11 12 13 14 15 16 17 18 19 20 21 22 23 24 25 26 27 28 29 30 31 32 33 34 35 36 37 38 39 40 41 42 43 44 45 46 47 48 49 50
000
ASUS45 KSLC 230110
RWRUT

UTAH REGIONAL WEATHER ROUNDUP
NATIONAL WEATHER SERVICE SALT LAKE CITY UT
600 PM MST SAT NOV 22 2014

UTZ001>011-023>025-230200-

NORTHERN UTAH

CITY           SKY/WX    TMP DP  RH WIND       PRES   REMARKS
BRIGHAM CITY   CLOUDY    38  32  79 SW5       29.80R WCI  34
HILL AFB       CLOUDY    36  36  99 S8        29.81S WCI  30
LOGAN          MOCLDY    34  32  92 SW8       29.78S WCI  27
OGDEN          CLOUDY    38  36  92 S10       29.80F WCI  31
PROVO AIRPORT  HVY RAIN  36  34  93 N14G21    29.86R WCI  27
SALT LAKE CITY CLOUDY    36  35  96 S7        29.85F WCI  30
VERNAL         CLOUDY    36  32  85 N7        29.76F WCI  30
WENDOVER       CLOUDY    41  32  70 W10       29.88S
HEBER CITY     LGT SNOW  34  32  93 SE5       29.82R WCI  30

$$

UTZ012>022-026-027-230200-

SOUTHERN/CENTRAL UTAH

CITY           SKY/WX    TMP DP  RH WIND       PRES   REMARKS
BLANDING       CLOUDY    41  24  51 CALM      29.96F
BRYCE CANYON   CLOUDY    42  19  39 SW21G29   29.90F
CEDAR CITY     MOCLDY    49  19  30 SW21G29   29.85F
DELTA          CLOUDY    43  40  88 NE8       29.82S
MILFORD        PTCLDY    49  23  36 S15       29.82R
MOAB/CYNLANDS  MOCLDY    41  17  38 NW5       29.78F
PRICE          HVY SNOW  32  29  88 CALM      29.84R VSB 1/4
ST GEORGE      CLOUDY    55  23  28 CALM      29.89F
KANAB            N/A     52  19  28 SW9G16    29.94F

$$

REGIONAL REPORTS     COLORADO/ARIZONA

CITY           SKY/WX    TMP DP  RH WIND       PRES   REMARKS
CRAIG, CO      CLOUDY    41  27  57 SW14      29.75F
GRAND JUNCTION LGT RAIN  36  33  89 NE6       29.83F WCI  31
RIFLE          LGT RAIN  38  32  79 W7        29.85F WCI  33
MONTROSE       CLOUDY    43  25  49 E6        29.85F
CORTEZ         CLOUDY    42  23  46 CALM      29.91F
PAGE, AZ       NOT AVBL
GRAND CANYON   CLEAR     47  16  29 SW15      30.00F
KINGMAN        CLEAR     56  22  26 SW9       29.96R
FLAGSTAFF      PTCLDY    43  14  31 VRB5      30.03S

$$

REGIONAL REPORTS    NEVADA/IDAHO/WYOMING

CITY           SKY/WX    TMP DP  RH WIND       PRES   REMARKS
LAS VEGAS, NV  PTCLDY    67  30  25 SW12      29.82S
ELY            LGT RAIN  41  41 100 NW24G43   29.91R
ELKO           FLURRIES  35  33  92 SW9       29.96R WCI  28
POCATELLO, ID  MOCLDY    37  34  89 SW22      29.77R WCI  26
BURLEY         MOCLDY    37  31  78 W18       29.80R WCI  27
EVANSTON, WY   LGT SNOW  29  26  89 W10       29.79F FOG     WCI  20
ROCK SPRINGS   LGT SNOW  32  29  88 W18G30    29.71R FOG     WCI  20
KEMMERER       FLURRIES  30  30 100 W17G24    29.73R WCI  18

$$



USA.gov is the U.S. government's official web portal to all federal, state and local government web resources and services.